Regional Weather Roundup
Issued by NWS

Home | Current Version | Previous Version | Graphics & Text | Print | Product List | Glossary On
Versions: 1 2 3 4 5 6 7 8 9 10 11 12 13 14 15 16 17 18 19 20 21 22 23 24 25 26 27 28 29 30 31 32 33 34 35 36 37 38 39 40 41 42 43 44 45 46 47 48 49 50
693
ASUS45 KSLC 181610
RWRUT

UTAH REGIONAL WEATHER ROUNDUP
NATIONAL WEATHER SERVICE SALT LAKE CITY UT
1000 AM MDT FRI AUG 18 2017

UTZ001>011-023>025-181700-

NORTHERN UTAH

CITY           SKY/WX    TMP DP  RH WIND       PRES   REMARKS
BRIGHAM CITY   SUNNY     72  40  31 CALM      30.19S
HILL AFB       SUNNY     72  38  28 E12       30.20S
LOGAN          SUNNY     67  41  38 CALM      30.20S
OGDEN          SUNNY     74  41  30 S5        30.18R
SALT LAKE CITY SUNNY     78  43  28 SE3       30.16S
TOOELE VALLEY  SUNNY     77  46  33 NW5       30.18S
WENDOVER       SUNNY     77  38  24 E6        30.18S
HEBER CITY     SUNNY     61  39  44 CALM      30.27F
WEST JORDAN    SUNNY     76  51  41 SE13      30.20S

$$

UTZ011>015-024>027-181700-

CENTRAL/NORTHEAST UTAH

CITY           SKY/WX    TMP DP  RH WIND       PRES   REMARKS
PROVO AIRPORT  SUNNY     73  45  36 SE7       30.21F
MOAB/CANYONLAN SUNNY     80  37  21 SE8       30.17R
DELTA          SUNNY     72  34  25 S3        30.21S
PRICE          SUNNY     75  35  23 CALM      30.27S
ROOSEVELT      SUNNY     73  36  25 CALM      30.27S
VERNAL         SUNNY     74  40  29 SE5       30.25S

$$

UTZ013>016-019>022-027-181700-

SOUTHERN UTAH

CITY           SKY/WX    TMP DP  RH WIND       PRES   REMARKS
BRYCE CANYON   SUNNY     69  37  30 CALM      30.42R
CEDAR CITY     MOSUNNY   78  47  33 VRB3      30.25S
MILFORD        SUNNY     75  41  29 S6        30.22S
ST GEORGE      SUNNY     80  46  30 S6        30.10S
HANKSVILLE     SUNNY     77  32  19 NW3       30.20S
BLANDING       SUNNY     74  33  22 SE6       30.35S

$$

REGIONAL REPORTS     COLORADO/ARIZONA

CITY           SKY/WX    TMP DP  RH WIND       PRES   REMARKS
CRAIG, CO      SUNNY     69  40  34 N3        30.32F
GRAND JUNCTION SUNNY     77  39  25 S10       30.22S
RIFLE, CO      SUNNY     69  44  40 CALM      30.27F
MONTROSE, CO   SUNNY     73  39  29 E5        30.29F
CORTEZ, CO     SUNNY     72  39  30 CALM      30.30R
COLORADO CITY    N/A     79  45  29 CALM      30.24S
PAGE, AZ       SUNNY     81  39  22 CALM      30.16S
GRAND CANYON   SUNNY     74  40  29 SE3       30.35S
KINGMAN, AZ    SUNNY     86  38  18 CALM      30.12S
FLAGSTAFF, AZ  SUNNY     70  43  37 VRB3      30.39R

$$

REGIONAL REPORTS    NEVADA/IDAHO/WYOMING

CITY           SKY/WX    TMP DP  RH WIND       PRES   REMARKS
LAS VEGAS, NV  MOSUNNY   90  41  18 CALM      30.01S
ELY, NY        SUNNY     70  33  25 S7        30.31S
ELKO, NV       SUNNY     67  34  29 E3        30.26S
POCATELLO, ID  SUNNY     72  38  29 CALM      30.20S
BURLEY, ID     SUNNY     72  40  31 W10       30.16S
FORT BRIDGER,    N/A     70  32  24 CALM      30.38S
EVANSTON, WY   SUNNY     68  37  32 SW9       30.35F
ROCK SPRINGS,  SUNNY     67  35  30 CALM      30.34S
KEMMERER, WY     N/A     64  34  32 CALM      30.36F

$$




USA.gov is the U.S. government's official web portal to all federal, state and local government web resources and services.